Regional Weather Roundup
Issued by NWS Northern Indiana

Home | Current Version | Previous Version | Text Only | Print | Product List | Glossary Off
Versions: 1 2 3 4 5 6 7 8 9 10 11 12 13 14 15 16 17 18 19 20 21 22 23 24 25 26 27 28 29 30 31 32 33 34 35 36 37 38 39 40 41 42 43 44 45 46 47 48 49 50

000
ASUS43 KIWX 300110
RWRIWX

KIWX WEATHER ROUNDUP
NATIONAL WEATHER SERVICE NORTHERN INDIANA
900 PM EDT WED MAR 29 2017

NOTE: "FAIR" INDICATES FEW OR NO CLOUDS BELOW 12,000 FEET WITH NO
SIGNIFICANT WEATHER AND/OR OBSTRUCTIONS TO VISIBILITY.

* THESE STATIONS ARE NOT UNDER NWS QUALITY CONTROL. THEY ALSO MAY NOT
  REPORT WEATHER SUCH AS PRECIPITATION OR FOG.

INZ001>027-300200-
NORTHERN INDIANA

CITY           SKY/WX    TMP DP  RH WIND       PRES   REMARKS
GARY*          LGT RAIN  50  41  71 E14       30.08R
VALPARAISO     CLOUDY    49  40  71 E17       30.06R
MICHIGAN CITY* LGT RAIN  48  36  61 E7        30.10R
LAPORTE*       LGT RAIN  47  38  71 E14G20    30.09R
KNOX*          CLOUDY    50  14  23 E20G25    30.06R
SOUTH BEND     LGT RAIN  49  34  56 E16       30.11R
ELKHART*       LGT RAIN  48  36  61 E14       30.08S
GOSHEN         CLOUDY    49  30  48 E15       30.08F
MONTICELLO*    CLOUDY    53  38  58 E14G20    30.01F
LOGANSPORT*    CLOUDY    50  37  62 E18G24    30.04F
WARSAW*        CLOUDY    48  30  49 E18G26    30.09S
ANGOLA*        CLOUDY    46  34  61 SE12      30.12F
FORT WAYNE     CLOUDY    48  31  51 E22G30    30.10F
HUNTINGTON*    CLOUDY    48  33  54 E10G23    30.09R
PERU/GRISSOM   CLOUDY    53  38  56 E17       30.03S
MARION*        CLOUDY    51  36  56 E21G26    30.06F

$$
INZ028>050-300200-
CENTRAL INDIANA

CITY           SKY/WX    TMP DP  RH WIND       PRES   REMARKS
LAFAYETTE      CLOUDY    54  41  61 E20G32    29.98F
KOKOMO*        CLOUDY    52  40  63 E20       30.04F
MUNCIE*        MOCLDY    54  41  61 E18G25    30.07F
INDIANAPOLIS   CLOUDY    57  43  59 E16       30.00F

$$
MIZ043>046-050>051-056>058-064>065-071>073-077>080-300200-
SOUTHWEST LOWER MICHIGAN

CITY           SKY/WX    TMP DP  RH WIND       PRES   REMARKS
BATTLE CREEK   CLOUDY    49  34  56 E14       30.12S
BENTON HARBOR  CLOUDY    51  35  54 E6        30.12R
COLDWATER*     CLOUDY    49  33  54 SE10G17   30.13R
HILLSDALE*     CLOUDY    45  32  61 E8        30.13S
HOLLAND        CLOUDY    49  35  58 E10       30.13R
GRAND RAPIDS   CLOUDY    44  34  67 NE18      30.15S
KALAMAZOO      CLOUDY    51  33  50 E9        30.13S
STURGIS*       LGT RAIN  48  35  60 SE13      30.11R
THREE RIVERS*  CLOUDY    50  34  54 E10       30.11S

$$
OHZ001>008-015>018-024>025-300200-
NORTHWEST OHIO

CITY           SKY/WX    TMP DP  RH WIND       PRES   REMARKS
WAUSEON*       CLOUDY    46  32  57 E13       30.14F
DEFIANCE       PTCLDY    47  33  58 E14       30.13F
FINDLAY        MOCLDY    48  31  51 E17       30.13F
TOLEDO EXPRESS MOCLDY    46  31  55 E9        30.16F
TOLEDO METCALF PTCLDY    47  33  58 E13       30.17F
LIMA           CLOUDY    47  33  58 E14       30.15R

$$
AND FOR LAKE MICHIGAN COASTAL AND OPEN LAKE BUOY OBSERVATIONS

STATION/POSITION TEMP    WIND        PRES    VSBY  WAVE
                 AIR SEA DIR/SP/G                  HT/PER
                 (F)     (DEG/KT/KT) (MB)    (MI)  (FT/S)
CALUMET HARBOR    41      20/  6/ 11 1018.7R
MICHIGAN CITY     50      80/ 11/ 16   N/A
BURNS HARBOR      49      80/  9/ 16 1019.0R

$$
&&




USA.gov is the U.S. government's official web portal to all federal, state and local government web resources and services.